Starlink 5670

operational
NORAD ID: 55341 Int'l Des: 2023-013 Owner: SPXS Country: US Constellation: starlink
LEOCIRCULAR

About Starlink 5670

Description loading...

Live Position

Loading 3D Globe...

Upcoming Passes

Altitude History

Altitude vs Time

uPlot chart will show altitude changes over time

Two-Line Element Set

1 55341U 23013L 25258.16676542 .00000501 00000-0 52175-4 0 9996
2 55341 43.0030 174.2955 0001148 264.1057 95.9654 15.02533770145306
Epoch: Sep 15, 2025 • Age: 17 hours

Current Status

Altitude 558.3 km
Velocity 7.59 km/s
Sub-Earth Point 12.82°N, 31.35°E
Launch Date Jan 26, 2023
Age 2.6 years
Type internet

Technical Details

Classification Payload
Mass 305.00 kg
Dry Mass 290.00 kg
Total Mass 305.00 kg
Length 0.20 m
Diameter 2.80 m
Span 9.00 m
Shape Box + pan
Manufacturer SPXS
Bus Type Starlink
Phase Status In Orbit
Owner/State SPXS/US

Large Constellations

Loading constellations...